Location: ?kun?ru
(16.3916°N, 80.8194°E)
Time: 02:06:04
(UTC+00:00)

ADEOS - Pass Details

Date: 19 May 2025
Orbit: 789 x 792 km, 98.9° (Epoch: 24 June)

Event Time Altitude Azimuth Distance (km) Brightness Sun altitude
Exits shadow 14:30:25 40° 131° (SE) 1,159 3.9 -20.2°
Maximum altitude 14:32:02 57° 76° (ENE) 928 3.6 -20.5°
Drops below altitude 10° 14:37:07 10° 358° (N) 2,353 6.4 -21.6°
Sets 14:39:28 0° 355° (N) 3,283 7.3 -22.1°
